SWA3254 KDAL-KSAN

Flight info

Callsign SWA3254
Flight time 2h 46m
Altitude 36000
Route KKITY5 CIKAN EWM GBN J2 HOGGZ LUCKI1
Aircraft B737/M-SADE2E3GIJ4RWZ/LB1D1

Departure

Time 2026-04-22 00:01
Airport Dallas Love Field (KDAL)

Arrival

Time 2026-04-22 02:47
Airport San Diego International Airport (KSAN)
Time Latitude Longitude Altitude Speed Heading
2026-04-21 23:21 32.84569 -96.84830 483 ft 0 kts
2026-04-21 23:47 32.84546 -96.84831 478 ft 3 kts
2026-04-21 23:47 32.84524 -96.84831 478 ft 4 kts
2026-04-21 23:48 32.84514 -96.84832 478 ft 0 kts
2026-04-21 23:53 32.84515 -96.84831 478 ft 1 kts
2026-04-21 23:53 32.84518 -96.84825 474 ft 1 kts 68°
2026-04-21 23:53 32.84517 -96.84806 478 ft 7 kts 92°
2026-04-21 23:54 32.84513 -96.84746 482 ft 7 kts 95°
2026-04-21 23:54 32.84509 -96.84688 483 ft 7 kts 91°
2026-04-21 23:54 32.84522 -96.84630 479 ft 9 kts 58°
2026-04-21 23:54 32.84561 -96.84576 482 ft 8 kts 45°
2026-04-21 23:55 32.84614 -96.84575 480 ft 9 kts 326°
2026-04-21 23:55 32.84673 -96.84641 480 ft 12 kts 315°
2026-04-21 23:55 32.84745 -96.84726 484 ft 15 kts 315°
2026-04-21 23:55 32.84817 -96.84810 483 ft 14 kts 315°
2026-04-21 23:56 32.84886 -96.84891 480 ft 14 kts 315°
2026-04-21 23:56 32.84958 -96.84976 484 ft 17 kts 315°
2026-04-21 23:56 32.85041 -96.85069 480 ft 16 kts 316°
2026-04-21 23:56 32.85129 -96.85170 484 ft 18 kts 316°
2026-04-21 23:57 32.85217 -96.85272 484 ft 17 kts 316°
2026-04-21 23:57 32.85302 -96.85370 484 ft 17 kts 316°
2026-04-21 23:57 32.85384 -96.85464 484 ft 16 kts 316°
2026-04-21 23:57 32.85462 -96.85555 480 ft 15 kts 316°
2026-04-21 23:58 32.85538 -96.85642 483 ft 15 kts 316°
2026-04-21 23:58 32.85599 -96.85712 483 ft 9 kts 315°
2026-04-21 23:58 32.85649 -96.85741 479 ft 8 kts
2026-04-21 23:58 32.85689 -96.85705 485 ft 7 kts 50°
2026-04-21 23:59 32.85693 -96.85649 485 ft 7 kts 114°
2026-04-21 23:59 32.85663 -96.85604 485 ft 7 kts 137°
2026-04-21 23:59 32.85617 -96.85551 485 ft 0 kts 135°
2026-04-21 23:59 32.85615 -96.85549 485 ft 0 kts 135°
2026-04-22 00:00 32.85530 -96.85451 485 ft 49 kts 136°
2026-04-22 00:00 32.85101 -96.84954 483 ft 121 kts 135°
2026-04-22 00:00 32.84372 -96.84093 622 ft 166 kts 136°
2026-04-22 00:01 32.83548 -96.83179 1519 ft 163 kts 139°
2026-04-22 00:01 32.82655 -96.82240 2136 ft 180 kts 141°
2026-04-22 00:01 32.81643 -96.81165 2378 ft 209 kts 141°
2026-04-22 00:01 32.80492 -96.79937 2691 ft 235 kts 141°
2026-04-22 00:02 32.79242 -96.78601 3353 ft 248 kts 142°
2026-04-22 00:02 32.77961 -96.77230 4103 ft 254 kts 141°
2026-04-22 00:02 32.76619 -96.75796 4837 ft 264 kts 141°
2026-04-22 00:02 32.75251 -96.74302 5635 ft 270 kts 138°
2026-04-22 00:03 32.73892 -96.72728 6418 ft 277 kts 137°
2026-04-22 00:03 32.72438 -96.71204 7207 ft 281 kts 152°
2026-04-22 00:03 32.70598 -96.70530 8047 ft 278 kts 181°
2026-04-22 00:03 32.68710 -96.70921 8980 ft 276 kts 203°
2026-04-22 00:04 32.66941 -96.71855 9885 ft 281 kts 207°
2026-04-22 00:04 32.65146 -96.72874 10524 ft 296 kts 207°
2026-04-22 00:04 32.63279 -96.74137 10699 ft 322 kts 222°
2026-04-22 00:04 32.61898 -96.76293 11102 ft 337 kts 248°
2026-04-22 00:05 32.61403 -96.79003 11873 ft 340 kts 268°
2026-04-22 00:05 32.61373 -96.81821 12749 ft 343 kts 271°
2026-04-22 00:05 32.61410 -96.84670 13593 ft 348 kts 271°
2026-04-22 00:05 32.61460 -96.87561 14378 ft 352 kts 272°
2026-04-22 00:06 32.61503 -96.90482 15179 ft 356 kts 271°
2026-04-22 00:06 32.61535 -96.93428 16021 ft 358 kts 271°
2026-04-22 00:06 32.61558 -96.96398 16858 ft 362 kts 271°
2026-04-22 00:06 32.61574 -96.99402 17675 ft 366 kts 271°
2026-04-22 00:07 32.61586 -97.02439 18445 ft 370 kts 271°
2026-04-22 00:07 32.61596 -97.05501 19113 ft 374 kts 271°
2026-04-22 00:07 32.61604 -97.08600 19785 ft 378 kts 271°
2026-04-22 00:07 32.61611 -97.11728 20469 ft 381 kts 271°
2026-04-22 00:08 32.61618 -97.14889 21138 ft 385 kts 271°
2026-04-22 00:08 32.61623 -97.18034 21787 ft 388 kts 271°
2026-04-22 00:08 32.61629 -97.21253 22423 ft 392 kts 271°
2026-04-22 00:08 32.61633 -97.24507 23051 ft 396 kts 271°
2026-04-22 00:09 32.61637 -97.27785 23675 ft 400 kts 271°
2026-04-22 00:09 32.61640 -97.31105 24206 ft 403 kts 271°
2026-04-22 00:09 32.61730 -97.34427 24779 ft 403 kts 277°
2026-04-22 00:09 32.62167 -97.37708 25395 ft 403 kts 281°
2026-04-22 00:10 32.62711 -97.40969 25982 ft 404 kts 282°
2026-04-22 00:10 32.63273 -97.44238 26530 ft 405 kts 282°
2026-04-22 00:10 32.63824 -97.47527 27055 ft 407 kts 281°
2026-04-22 00:10 32.64356 -97.50827 27526 ft 408 kts 281°
2026-04-22 00:11 32.64876 -97.54148 28031 ft 410 kts 281°
2026-04-22 00:11 32.65387 -97.57480 28522 ft 412 kts 281°
2026-04-22 00:11 32.65898 -97.60831 29001 ft 414 kts 281°
2026-04-22 00:11 32.66404 -97.64164 29378 ft 418 kts 281°
2026-04-22 00:12 32.66922 -97.67572 29801 ft 420 kts 281°
2026-04-22 00:12 32.67437 -97.70973 30405 ft 417 kts 281°
2026-04-22 00:12 32.67794 -97.74371 30987 ft 415 kts 271°
2026-04-22 00:12 32.67561 -97.77774 31585 ft 412 kts 266°
2026-04-22 00:13 32.67263 -97.81149 32141 ft 409 kts 266°
2026-04-22 00:13 32.66973 -97.84502 32614 ft 408 kts 266°
2026-04-22 00:13 32.66693 -97.87853 33070 ft 407 kts 266°
2026-04-22 00:13 32.66423 -97.91191 33568 ft 405 kts 266°
2026-04-22 00:14 32.66159 -97.94509 34075 ft 403 kts 266°
2026-04-22 00:14 32.65899 -97.97813 34459 ft 401 kts 266°
2026-04-22 00:14 32.65639 -98.01107 34770 ft 402 kts 266°
2026-04-22 00:14 32.65379 -98.04413 35052 ft 403 kts 266°
2026-04-22 00:15 32.65116 -98.07724 35337 ft 403 kts 266°
2026-04-22 00:15 32.64852 -98.11034 35632 ft 403 kts 266°
2026-04-22 00:15 32.64588 -98.14344 35939 ft 403 kts 266°
2026-04-22 00:15 32.64322 -98.17662 36145 ft 406 kts 266°
2026-04-22 00:16 32.64052 -98.21014 36128 ft 409 kts 266°
2026-04-22 00:16 32.63508 -98.27737 36122 ft 407 kts 266°
2026-04-22 00:17 32.62972 -98.34309 36119 ft 401 kts 266°
2026-04-22 00:17 32.62434 -98.40894 36111 ft 401 kts 266°
2026-04-22 00:18 32.61891 -98.47489 36111 ft 402 kts 266°
2026-04-22 00:18 32.61345 -98.54097 36110 ft 403 kts 266°
2026-04-22 00:19 32.60792 -98.60722 36120 ft 404 kts 266°
2026-04-22 00:19 32.60236 -98.67357 36122 ft 405 kts 266°
2026-04-22 00:20 32.59674 -98.74010 36112 ft 405 kts 266°
2026-04-22 00:20 32.59109 -98.80666 36129 ft 406 kts 266°
2026-04-22 00:21 32.58539 -98.87332 36135 ft 407 kts 266°
2026-04-22 00:21 32.57964 -98.94010 36129 ft 407 kts 266°
2026-04-22 00:22 32.57386 -99.00693 36121 ft 408 kts 266°
2026-04-22 00:22 32.56803 -99.07378 36120 ft 408 kts 266°
2026-04-22 00:23 32.56316 -99.12941 36095 ft 408 kts 265°
2026-04-22 00:23 32.55726 -99.19638 36101 ft 408 kts 265°
2026-04-22 00:24 32.55134 -99.26333 36087 ft 409 kts 265°
2026-04-22 00:24 32.54536 -99.33038 36086 ft 409 kts 265°
2026-04-22 00:25 32.54072 -99.39752 36100 ft 409 kts 268°
2026-04-22 00:25 32.53700 -99.46473 36088 ft 409 kts 268°
2026-04-22 00:26 32.53314 -99.53198 36103 ft 409 kts 267°
2026-04-22 00:26 32.52910 -99.59926 36116 ft 409 kts 267°
2026-04-22 00:27 32.52498 -99.66614 36111 ft 410 kts 267°
2026-04-22 00:27 32.52078 -99.73352 36110 ft 410 kts 267°
2026-04-22 00:28 32.51655 -99.80095 36096 ft 410 kts 267°
2026-04-22 00:28 32.51229 -99.86837 36083 ft 411 kts 267°
2026-04-22 00:29 32.50798 -99.93589 36086 ft 411 kts 267°
2026-04-22 00:29 32.50362 -100.00363 36087 ft 412 kts 266°
2026-04-22 00:30 32.49923 -100.07135 36074 ft 413 kts 266°
2026-04-22 00:30 32.49480 -100.13915 36070 ft 413 kts 266°
2026-04-22 00:31 32.49032 -100.20703 36050 ft 413 kts 266°
2026-04-22 00:31 32.48581 -100.27495 36038 ft 414 kts 266°
2026-04-22 00:32 32.48126 -100.34315 36125 ft 415 kts 266°
2026-04-22 00:32 32.47676 -100.41129 36131 ft 416 kts 266°
2026-04-22 00:33 32.47225 -100.47962 36131 ft 416 kts 266°
2026-04-22 00:33 32.46771 -100.54758 36133 ft 417 kts 266°
2026-04-22 00:34 32.46310 -100.61602 36108 ft 417 kts 266°
2026-04-22 00:34 32.45845 -100.68457 36100 ft 418 kts 266°
2026-04-22 00:35 32.45375 -100.75321 36070 ft 418 kts 266°
2026-04-22 00:35 32.44902 -100.82182 36048 ft 418 kts 266°
2026-04-22 00:36 32.44423 -100.89053 36044 ft 418 kts 266°
2026-04-22 00:36 32.43942 -100.95919 36049 ft 418 kts 266°
2026-04-22 00:37 32.43457 -101.02783 36034 ft 418 kts 266°
2026-04-22 00:37 32.42968 -101.09644 36027 ft 418 kts 266°
2026-04-22 00:38 32.42477 -101.16498 36013 ft 418 kts 266°
2026-04-22 00:38 32.41981 -101.23353 36012 ft 418 kts 266°
2026-04-22 00:39 32.41482 -101.30203 36005 ft 418 kts 266°
2026-04-22 00:39 32.40979 -101.37052 35993 ft 418 kts 266°
2026-04-22 00:40 32.40476 -101.43855 35999 ft 418 kts 266°
2026-04-22 00:40 32.39965 -101.50711 36006 ft 418 kts 266°
2026-04-22 00:41 32.39450 -101.57570 35997 ft 419 kts 265°
2026-04-22 00:41 32.38931 -101.64440 36000 ft 419 kts 265°
2026-04-22 00:42 32.38408 -101.71308 35993 ft 420 kts 265°
2026-04-22 00:42 32.37880 -101.78188 36000 ft 420 kts 265°
2026-04-22 00:43 32.37348 -101.85072 35999 ft 421 kts 265°
2026-04-22 00:43 32.36812 -101.91970 35994 ft 421 kts 265°
2026-04-22 00:44 32.36270 -101.98882 35993 ft 422 kts 265°
2026-04-22 00:44 32.35724 -102.05797 35995 ft 422 kts 265°
2026-04-22 00:45 32.35175 -102.12711 35992 ft 422 kts 265°
2026-04-22 00:45 32.34621 -102.19633 35987 ft 423 kts 265°
2026-04-22 00:46 32.34063 -102.26553 35984 ft 423 kts 265°
2026-04-22 00:46 32.33502 -102.33473 35984 ft 423 kts 265°
2026-04-22 00:47 32.32936 -102.40392 35981 ft 423 kts 265°
2026-04-22 00:47 32.32367 -102.47310 35980 ft 423 kts 265°
2026-04-22 00:48 32.31794 -102.54230 35979 ft 423 kts 265°
2026-04-22 00:48 32.31221 -102.61104 35978 ft 423 kts 265°
2026-04-22 00:49 32.30641 -102.68019 35970 ft 423 kts 265°
2026-04-22 00:49 32.30056 -102.74939 35970 ft 423 kts 265°
2026-04-22 00:50 32.29468 -102.81857 35961 ft 423 kts 264°
2026-04-22 00:50 32.28876 -102.88769 35961 ft 423 kts 264°
2026-04-22 00:51 32.28280 -102.95688 35951 ft 423 kts 264°
2026-04-22 00:51 32.27681 -103.02601 35949 ft 423 kts 264°
2026-04-22 00:52 32.27078 -103.09508 35945 ft 423 kts 264°
2026-04-22 00:52 32.26472 -103.16413 35943 ft 423 kts 264°
2026-04-22 00:53 32.25862 -103.23317 35937 ft 422 kts 264°
2026-04-22 00:53 32.25248 -103.30217 35933 ft 422 kts 264°
2026-04-22 00:54 32.24631 -103.37114 35930 ft 422 kts 264°
2026-04-22 00:54 32.24010 -103.44017 35927 ft 422 kts 264°
2026-04-22 00:55 32.23385 -103.50911 35913 ft 422 kts 264°
2026-04-22 00:55 32.22441 -103.61252 35920 ft 422 kts 264°
2026-04-22 00:56 32.21807 -103.68149 35903 ft 422 kts 264°
2026-04-22 00:56 32.21173 -103.74999 35901 ft 423 kts 264°
2026-04-22 00:57 32.20531 -103.81896 35892 ft 423 kts 264°
2026-04-22 00:57 32.19885 -103.88796 35893 ft 423 kts 264°
2026-04-22 00:58 32.19235 -103.95699 35894 ft 423 kts 264°
2026-04-22 00:58 32.18580 -104.02605 35892 ft 423 kts 264°
2026-04-22 00:59 32.17921 -104.09519 35961 ft 423 kts 264°
2026-04-22 00:59 32.17259 -104.16425 35974 ft 423 kts 264°
2026-04-22 01:00 32.16594 -104.23326 35982 ft 423 kts 264°
2026-04-22 01:00 32.15924 -104.30231 35971 ft 423 kts 264°
2026-04-22 01:01 32.15251 -104.37129 35965 ft 423 kts 264°
2026-04-22 01:01 32.14574 -104.44029 35951 ft 423 kts 264°
2026-04-22 01:02 32.13894 -104.50923 35938 ft 423 kts 264°
2026-04-22 01:02 32.13210 -104.57815 35923 ft 423 kts 264°
2026-04-22 01:03 32.12528 -104.64654 35907 ft 422 kts 264°
2026-04-22 01:03 32.11838 -104.71535 35916 ft 422 kts 264°
2026-04-22 01:04 32.11144 -104.78411 35913 ft 422 kts 264°
2026-04-22 01:04 32.10446 -104.85287 35918 ft 422 kts 264°
2026-04-22 01:05 32.09745 -104.92169 35917 ft 423 kts 264°
2026-04-22 01:05 32.09039 -104.99047 35915 ft 423 kts 264°
2026-04-22 01:06 32.08329 -105.05931 35909 ft 423 kts 264°
2026-04-22 01:06 32.07616 -105.12819 35902 ft 423 kts 263°
2026-04-22 01:07 32.06904 -105.19650 35905 ft 422 kts 263°
2026-04-22 01:07 32.06184 -105.26516 35898 ft 422 kts 263°
2026-04-22 01:08 32.05461 -105.33380 35899 ft 421 kts 263°
2026-04-22 01:08 32.04736 -105.40232 35896 ft 421 kts 263°
2026-04-22 01:09 32.04008 -105.47075 35896 ft 420 kts 263°
2026-04-22 01:09 32.03277 -105.53905 35912 ft 420 kts 263°
2026-04-22 01:10 32.02666 -105.59586 35906 ft 420 kts 263°
2026-04-22 01:10 32.01929 -105.66417 35919 ft 420 kts 263°
2026-04-22 01:11 32.01187 -105.73248 35912 ft 420 kts 263°
2026-04-22 01:11 32.00443 -105.80066 35915 ft 420 kts 263°
2026-04-22 01:12 31.99695 -105.86889 35918 ft 419 kts 263°
2026-04-22 01:12 31.98945 -105.93696 35908 ft 419 kts 263°
2026-04-22 01:13 31.98191 -106.00506 35918 ft 419 kts 263°
2026-04-22 01:13 31.97434 -106.07310 35944 ft 419 kts 263°
2026-04-22 01:14 31.96674 -106.14107 35966 ft 418 kts 263°
2026-04-22 01:14 31.95911 -106.20900 35994 ft 418 kts 263°
2026-04-22 01:15 31.95470 -106.27656 36017 ft 417 kts 273°
2026-04-22 01:15 31.96423 -106.34368 36037 ft 416 kts 282°
2026-04-22 01:16 31.97682 -106.41010 36023 ft 416 kts 282°
2026-04-22 01:16 31.98931 -106.47658 36004 ft 415 kts 282°
2026-04-22 01:17 32.00153 -106.54302 36017 ft 415 kts 282°
2026-04-22 01:17 32.01362 -106.60952 36028 ft 415 kts 282°
2026-04-22 01:18 32.02566 -106.67610 36033 ft 415 kts 282°
2026-04-22 01:18 32.03763 -106.74255 36033 ft 414 kts 282°
2026-04-22 01:19 32.04958 -106.80907 36010 ft 415 kts 282°
2026-04-22 01:19 32.06151 -106.87564 35989 ft 415 kts 282°
2026-04-22 01:20 32.07342 -106.94237 35999 ft 416 kts 282°
2026-04-22 01:20 32.08531 -107.00915 35999 ft 416 kts 282°
2026-04-22 01:21 32.09717 -107.07599 35993 ft 416 kts 282°
2026-04-22 01:21 32.10898 -107.14278 35960 ft 415 kts 282°
2026-04-22 01:22 32.12072 -107.20938 35946 ft 414 kts 282°
2026-04-22 01:22 32.13240 -107.27584 35914 ft 413 kts 282°
2026-04-22 01:23 32.14392 -107.34162 35914 ft 412 kts 282°
2026-04-22 01:23 32.15545 -107.40767 35943 ft 410 kts 282°
2026-04-22 01:24 32.16690 -107.47347 35983 ft 408 kts 282°
2026-04-22 01:24 32.17824 -107.53885 36017 ft 406 kts 282°
2026-04-22 01:25 32.18951 -107.60399 36057 ft 405 kts 282°
2026-04-22 01:25 32.20074 -107.66914 36070 ft 405 kts 282°
2026-04-22 01:26 32.21192 -107.73421 36071 ft 404 kts 282°
2026-04-22 01:26 32.22306 -107.79929 36074 ft 403 kts 282°
2026-04-22 01:27 32.22860 -107.83172 35922 ft 403 kts 282°
2026-04-22 01:27 32.23407 -107.86378 35920 ft 403 kts 282°
2026-04-22 01:27 32.24509 -107.92859 35926 ft 402 kts 282°
2026-04-22 01:28 32.25608 -107.99337 35923 ft 402 kts 282°
2026-04-22 01:28 32.26704 -108.05822 35923 ft 402 kts 282°
2026-04-22 01:29 32.27796 -108.12303 35926 ft 402 kts 282°
2026-04-22 01:29 32.28886 -108.18792 35926 ft 403 kts 282°
2026-04-22 01:30 32.29973 -108.25288 35927 ft 403 kts 282°
2026-04-22 01:30 32.31058 -108.31790 35951 ft 403 kts 282°
2026-04-22 01:31 32.32141 -108.38299 35992 ft 404 kts 282°
2026-04-22 01:31 32.33222 -108.44824 36003 ft 404 kts 282°
2026-04-22 01:32 32.34300 -108.51353 36048 ft 404 kts 282°
2026-04-22 01:32 32.34838 -108.54617 35928 ft 405 kts 282°
2026-04-22 01:32 32.35376 -108.57885 35920 ft 405 kts 282°
2026-04-22 01:33 32.36449 -108.64430 35918 ft 405 kts 282°
2026-04-22 01:33 32.37520 -108.70979 35911 ft 406 kts 282°
2026-04-22 01:34 32.38588 -108.77534 35910 ft 406 kts 282°
2026-04-22 01:34 32.39645 -108.84040 35906 ft 405 kts 282°
2026-04-22 01:35 32.40704 -108.90587 35905 ft 405 kts 282°
2026-04-22 01:35 32.41761 -108.97135 35903 ft 405 kts 282°
2026-04-22 01:36 32.42814 -109.03688 35897 ft 405 kts 281°
2026-04-22 01:36 32.43864 -109.10242 35890 ft 405 kts 281°
2026-04-22 01:37 32.44909 -109.16787 35893 ft 404 kts 281°
2026-04-22 01:37 32.45950 -109.23335 35898 ft 405 kts 281°
2026-04-22 01:38 32.46991 -109.29902 35889 ft 406 kts 281°
2026-04-22 01:38 32.48029 -109.36471 35885 ft 406 kts 281°
2026-04-22 01:39 32.49063 -109.43041 35890 ft 406 kts 281°
2026-04-22 01:39 32.50093 -109.49611 35891 ft 405 kts 280°
2026-04-22 01:40 32.51111 -109.56135 35900 ft 405 kts 280°
2026-04-22 01:40 32.52134 -109.62699 35908 ft 405 kts 280°
2026-04-22 01:41 32.53153 -109.69261 35900 ft 405 kts 280°
2026-04-22 01:41 32.54167 -109.75813 35902 ft 404 kts 280°
2026-04-22 01:42 32.55177 -109.82368 35898 ft 404 kts 279°
2026-04-22 01:42 32.56185 -109.88931 35916 ft 405 kts 279°
2026-04-22 01:43 32.57191 -109.95511 35923 ft 406 kts 279°
2026-04-22 01:43 32.58189 -110.02055 35927 ft 406 kts 279°
2026-04-22 01:44 32.59192 -110.08663 35923 ft 407 kts 279°
2026-04-22 01:44 32.60191 -110.15262 35917 ft 407 kts 279°
2026-04-22 01:45 32.61187 -110.21869 35920 ft 407 kts 279°
2026-04-22 01:45 32.62180 -110.28484 35914 ft 407 kts 279°
2026-04-22 01:46 32.63168 -110.35091 35923 ft 407 kts 279°
2026-04-22 01:46 32.64156 -110.41711 35922 ft 407 kts 279°
2026-04-22 01:47 32.65139 -110.48333 35915 ft 408 kts 278°
2026-04-22 01:47 32.66120 -110.54959 35913 ft 408 kts 278°
2026-04-22 01:48 32.67091 -110.61548 35910 ft 408 kts 278°
2026-04-22 01:48 32.68065 -110.68179 35908 ft 407 kts 278°
2026-04-22 01:49 32.69034 -110.74801 35904 ft 407 kts 278°
2026-04-22 01:49 32.69998 -110.81418 35927 ft 407 kts 278°
2026-04-22 01:50 32.70960 -110.88044 35909 ft 407 kts 278°
2026-04-22 01:50 32.71918 -110.94669 35902 ft 406 kts 278°
2026-04-22 01:51 32.72871 -111.01283 35893 ft 406 kts 278°
2026-04-22 01:51 32.73821 -111.07903 35906 ft 406 kts 278°
2026-04-22 01:52 32.74766 -111.14517 35914 ft 406 kts 278°
2026-04-22 01:52 32.75709 -111.21138 35918 ft 406 kts 277°
2026-04-22 01:53 32.76648 -111.27754 35922 ft 406 kts 277°
2026-04-22 01:53 32.77582 -111.34368 35920 ft 406 kts 277°
2026-04-22 01:54 32.78512 -111.40976 35931 ft 405 kts 277°
2026-04-22 01:54 32.79439 -111.47588 35916 ft 405 kts 277°
2026-04-22 01:55 32.80361 -111.54192 35915 ft 405 kts 277°
2026-04-22 01:55 32.81273 -111.60746 35948 ft 405 kts 277°
2026-04-22 01:56 32.82188 -111.67354 35940 ft 405 kts 277°
2026-04-22 01:56 32.83099 -111.73960 35940 ft 405 kts 277°
2026-04-22 01:57 32.84007 -111.80563 35940 ft 405 kts 277°
2026-04-22 01:57 32.84911 -111.87170 35941 ft 405 kts 277°
2026-04-22 01:58 32.85812 -111.93782 35937 ft 405 kts 277°
2026-04-22 01:58 32.86559 -111.99282 35934 ft 405 kts 276°
2026-04-22 01:59 32.87454 -112.05896 35930 ft 405 kts 276°
2026-04-22 01:59 32.88346 -112.12516 35925 ft 405 kts 276°
2026-04-22 02:00 32.89235 -112.19142 35931 ft 406 kts 276°
2026-04-22 02:00 32.90122 -112.25780 35915 ft 406 kts 276°
2026-04-22 02:01 32.91006 -112.32423 35915 ft 406 kts 276°
2026-04-22 02:01 32.91887 -112.39067 35931 ft 407 kts 276°
2026-04-22 02:02 32.92765 -112.45721 35920 ft 407 kts 276°
2026-04-22 02:02 32.93636 -112.52348 35925 ft 408 kts 276°
2026-04-22 02:03 32.94509 -112.59015 35933 ft 407 kts 276°
2026-04-22 02:03 32.95330 -112.65674 35933 ft 405 kts 271°
2026-04-22 02:04 32.95020 -112.72310 35944 ft 400 kts 259°
2026-04-22 02:04 32.94571 -112.75576 35934 ft 400 kts 259°
2026-04-22 02:05 32.93658 -112.82106 35938 ft 399 kts 259°
2026-04-22 02:05 32.92762 -112.88629 35926 ft 399 kts 259°
2026-04-22 02:06 32.91879 -112.95138 35920 ft 398 kts 259°
2026-04-22 02:06 32.90997 -113.01646 35901 ft 398 kts 259°
2026-04-22 02:07 32.90114 -113.08145 35903 ft 398 kts 259°
2026-04-22 02:07 32.89234 -113.14594 35907 ft 398 kts 259°
2026-04-22 02:08 32.88345 -113.21083 35897 ft 397 kts 259°
2026-04-22 02:08 32.87452 -113.27570 35897 ft 397 kts 259°
2026-04-22 02:09 32.86558 -113.34042 35892 ft 397 kts 259°
2026-04-22 02:09 32.85661 -113.40513 35900 ft 396 kts 259°
2026-04-22 02:10 32.84762 -113.46975 35899 ft 396 kts 259°
2026-04-22 02:10 32.83861 -113.53425 35902 ft 395 kts 259°
2026-04-22 02:11 32.82958 -113.59867 35901 ft 395 kts 259°
2026-04-22 02:11 32.82052 -113.66307 35903 ft 395 kts 259°
2026-04-22 02:12 32.81136 -113.72743 35903 ft 394 kts 259°
2026-04-22 02:12 32.80211 -113.79163 35919 ft 394 kts 259°
2026-04-22 02:13 32.79283 -113.85588 35907 ft 394 kts 259°
2026-04-22 02:13 32.78355 -113.91998 35913 ft 393 kts 259°
2026-04-22 02:14 32.77545 -113.98429 35907 ft 394 kts 266°
2026-04-22 02:14 32.77506 -114.04948 35918 ft 395 kts 267°
2026-04-22 02:15 32.77614 -114.11431 35926 ft 395 kts 270°
2026-04-22 02:15 32.77914 -114.17939 35921 ft 394 kts 270°
2026-04-22 02:16 32.78195 -114.24439 35932 ft 394 kts 270°
2026-04-22 02:16 32.78450 -114.30933 35960 ft 394 kts 270°
2026-04-22 02:17 32.78703 -114.37433 35937 ft 393 kts 271°
2026-04-22 02:17 32.79199 -114.40641 35932 ft 398 kts 284°
2026-04-22 02:17 32.80086 -114.43756 35932 ft 398 kts 284°
2026-04-22 02:18 32.81854 -114.49967 35927 ft 396 kts 284°
2026-04-22 02:18 32.83578 -114.56174 35930 ft 394 kts 283°
2026-04-22 02:19 32.85277 -114.62366 35933 ft 394 kts 283°
2026-04-22 02:19 32.86971 -114.68557 35931 ft 394 kts 283°
2026-04-22 02:20 32.87988 -114.74852 35947 ft 385 kts 266°
2026-04-22 02:20 32.87824 -114.81214 35947 ft 385 kts 265°
2026-04-22 02:21 32.87627 -114.87599 35938 ft 387 kts 265°
2026-04-22 02:21 32.87461 -114.94005 35821 ft 389 kts 266°
2026-04-22 02:21 32.87383 -114.97251 35250 ft 392 kts 266°
2026-04-22 02:22 32.87307 -115.00494 34584 ft 392 kts 266°
2026-04-22 02:22 32.87232 -115.03736 33874 ft 393 kts 266°
2026-04-22 02:22 32.87157 -115.06964 33333 ft 388 kts 265°
2026-04-22 02:22 32.87082 -115.10162 32749 ft 385 kts 265°
2026-04-22 02:23 32.87006 -115.13329 32210 ft 381 kts 265°
2026-04-22 02:23 32.86930 -115.16464 31686 ft 377 kts 265°
2026-04-22 02:23 32.86854 -115.19564 31175 ft 374 kts 265°
2026-04-22 02:23 32.86777 -115.22646 30669 ft 370 kts 265°
2026-04-22 02:24 32.86700 -115.25692 30172 ft 368 kts 265°
2026-04-22 02:24 32.86625 -115.28685 29591 ft 365 kts 265°
2026-04-22 02:24 32.86547 -115.31728 29022 ft 361 kts 265°
2026-04-22 02:24 32.86445 -115.34695 28472 ft 357 kts 262°
2026-04-22 02:25 32.86104 -115.37596 27939 ft 352 kts 258°
2026-04-22 02:25 32.85664 -115.40417 27424 ft 351 kts 257°
2026-04-22 02:25 32.85217 -115.43311 26898 ft 351 kts 258°
2026-04-22 02:25 32.84804 -115.46137 26382 ft 352 kts 258°
2026-04-22 02:26 32.84394 -115.49012 25876 ft 352 kts 258°
2026-04-22 02:26 32.83952 -115.51867 25448 ft 350 kts 257°
2026-04-22 02:26 32.83487 -115.54704 25020 ft 349 kts 257°
2026-04-22 02:26 32.83019 -115.57522 24590 ft 347 kts 257°
2026-04-22 02:27 32.82552 -115.60337 24157 ft 347 kts 257°
2026-04-22 02:27 32.82087 -115.63147 23783 ft 346 kts 257°
2026-04-22 02:27 32.81624 -115.65957 23321 ft 345 kts 258°
2026-04-22 02:27 32.81169 -115.68727 22842 ft 338 kts 258°
2026-04-22 02:28 32.80721 -115.71451 22407 ft 333 kts 258°
2026-04-22 02:28 32.80279 -115.74139 21989 ft 329 kts 258°
2026-04-22 02:28 32.79841 -115.76798 21587 ft 327 kts 258°
2026-04-22 02:28 32.79405 -115.79439 21187 ft 324 kts 258°
2026-04-22 02:29 32.78972 -115.82059 20795 ft 322 kts 258°
2026-04-22 02:29 32.78542 -115.84670 20399 ft 321 kts 258°
2026-04-22 02:29 32.78246 -115.87299 20010 ft 321 kts 262°
2026-04-22 02:29 32.78051 -115.89934 19626 ft 320 kts 263°
2026-04-22 02:30 32.77879 -115.92566 19242 ft 319 kts 264°
2026-04-22 02:30 32.77705 -115.95199 18836 ft 319 kts 263°
2026-04-22 02:30 32.77524 -115.97830 18438 ft 321 kts 264°
2026-04-22 02:30 32.77336 -116.00477 18019 ft 321 kts 263°
2026-04-22 02:31 32.77142 -116.03124 17604 ft 322 kts 263°
2026-04-22 02:31 32.76947 -116.05747 17109 ft 325 kts 263°
2026-04-22 02:31 32.76743 -116.08454 16673 ft 325 kts 263°
2026-04-22 02:31 32.76543 -116.11100 16267 ft 325 kts 263°
2026-04-22 02:32 32.76340 -116.13774 15891 ft 325 kts 263°
2026-04-22 02:32 32.76137 -116.16440 15482 ft 324 kts 263°
2026-04-22 02:32 32.75933 -116.19106 15082 ft 323 kts 263°
2026-04-22 02:32 32.75730 -116.21762 14695 ft 323 kts 263°
2026-04-22 02:33 32.75526 -116.24414 14279 ft 321 kts 263°
2026-04-22 02:33 32.75325 -116.27029 13917 ft 315 kts 263°
2026-04-22 02:33 32.75126 -116.29587 13470 ft 308 kts 263°
2026-04-22 02:33 32.74932 -116.32094 13070 ft 301 kts 263°
2026-04-22 02:34 32.74742 -116.34542 12690 ft 294 kts 263°
2026-04-22 02:34 32.74557 -116.36939 12325 ft 290 kts 263°
2026-04-22 02:34 32.74372 -116.39313 11997 ft 289 kts 263°
2026-04-22 02:34 32.74187 -116.41688 11643 ft 287 kts 263°
2026-04-22 02:35 32.74004 -116.44026 11288 ft 280 kts 262°
2026-04-22 02:35 32.73829 -116.46278 10945 ft 268 kts 262°
2026-04-22 02:35 32.73659 -116.48440 10604 ft 257 kts 262°
2026-04-22 02:35 32.73494 -116.50505 10310 ft 245 kts 261°
2026-04-22 02:36 32.73309 -116.52476 10009 ft 235 kts 261°
2026-04-22 02:36 32.73124 -116.54362 9709 ft 226 kts 261°
2026-04-22 02:36 32.72946 -116.56185 9414 ft 218 kts 260°
2026-04-22 02:36 32.72774 -116.57948 9120 ft 212 kts 261°
2026-04-22 02:37 32.72605 -116.59680 8896 ft 213 kts 261°
2026-04-22 02:37 32.72432 -116.61440 8617 ft 216 kts 261°
2026-04-22 02:37 32.72260 -116.63212 8361 ft 216 kts 262°
2026-04-22 02:37 32.72087 -116.64984 8087 ft 216 kts 262°
2026-04-22 02:38 32.71927 -116.66779 7688 ft 220 kts 263°
2026-04-22 02:38 32.71787 -116.68580 7295 ft 218 kts 263°
2026-04-22 02:38 32.71649 -116.70355 6907 ft 214 kts 264°
2026-04-22 02:38 32.71513 -116.72097 6514 ft 211 kts 264°
2026-04-22 02:39 32.71378 -116.73818 6186 ft 206 kts 264°
2026-04-22 02:39 32.71248 -116.75483 6093 ft 201 kts 265°
2026-04-22 02:39 32.71117 -116.77146 6076 ft 204 kts 265°
2026-04-22 02:39 32.70982 -116.78851 6060 ft 210 kts 264°
2026-04-22 02:40 32.70845 -116.80592 6023 ft 212 kts 264°
2026-04-22 02:40 32.70636 -116.82337 5833 ft 218 kts 254°
2026-04-22 02:40 32.70112 -116.83995 5614 ft 211 kts 250°
2026-04-22 02:40 32.69591 -116.85603 5342 ft 206 kts 251°
2026-04-22 02:41 32.69087 -116.87187 5076 ft 206 kts 251°
2026-04-22 02:41 32.68583 -116.88807 4813 ft 213 kts 251°
2026-04-22 02:41 32.68087 -116.90471 4513 ft 213 kts 251°
2026-04-22 02:41 32.67600 -116.92114 4212 ft 211 kts 251°
2026-04-22 02:42 32.67317 -116.93801 3953 ft 209 kts 274°
2026-04-22 02:42 32.67595 -116.95450 3804 ft 207 kts 284°
2026-04-22 02:42 32.67995 -116.97100 3612 ft 209 kts 285°
2026-04-22 02:42 32.68418 -116.98766 3389 ft 212 kts 285°
2026-04-22 02:43 32.68834 -117.00432 3152 ft 209 kts 285°
2026-04-22 02:43 32.69238 -117.02064 2945 ft 201 kts 285°
2026-04-22 02:43 32.69619 -117.03611 2727 ft 190 kts 285°
2026-04-22 02:43 32.69978 -117.05077 2463 ft 180 kts 285°
2026-04-22 02:44 32.70314 -117.06448 2228 ft 164 kts 285°
2026-04-22 02:44 32.70615 -117.07674 2029 ft 146 kts 284°
2026-04-22 02:44 32.70797 -117.08417 1925 ft 131 kts 284°
2026-04-22 02:44 32.71039 -117.09407 1707 ft 120 kts 283°
2026-04-22 02:45 32.71267 -117.10347 1563 ft 121 kts 284°
2026-04-22 02:45 32.71504 -117.11324 1382 ft 123 kts 284°
2026-04-22 02:45 32.71745 -117.12308 1171 ft 127 kts 284°
2026-04-22 02:45 32.71994 -117.13336 1002 ft 131 kts 284°
2026-04-22 02:46 32.72241 -117.14371 772 ft 129 kts 282°
2026-04-22 02:46 32.72484 -117.15373 579 ft 124 kts 282°
2026-04-22 02:46 32.72721 -117.16351 411 ft 124 kts 283°
2026-04-22 02:46 32.72954 -117.17322 201 ft 120 kts 283°
2026-04-22 02:47 32.73182 -117.18273 29 ft 121 kts 283°
2026-04-22 02:47 32.73385 -117.19121 21 ft 84 kts 287°
2026-04-22 02:47 32.73490 -117.19546 23 ft 33 kts 286°
2026-04-22 02:47 32.73529 -117.19760 24 ft 18 kts 261°
2026-04-22 02:48 32.73503 -117.19822 26 ft 3 kts 223°
2026-04-22 02:48 32.73483 -117.19839 23 ft 4 kts 209°
2026-04-22 02:48 32.73458 -117.19840 24 ft 4 kts 139°
2026-04-22 02:48 32.73451 -117.19810 22 ft 4 kts 98°
2026-04-22 02:49 32.73447 -117.19780 22 ft 4 kts 98°
2026-04-22 02:49 32.73442 -117.19752 24 ft 3 kts 103°
2026-04-22 02:49 32.73437 -117.19732 22 ft 2 kts 108°
2026-04-22 02:49 32.73430 -117.19714 22 ft 2 kts 118°
2026-04-22 02:50 32.73418 -117.19701 22 ft 2 kts 152°
2026-04-22 02:50 32.73403 -117.19698 22 ft 2 kts 175°
2026-04-22 02:50 32.73389 -117.19699 22 ft 2 kts 186°
2026-04-22 02:50 32.73376 -117.19702 22 ft 2 kts 194°
2026-04-22 02:51 32.73363 -117.19705 23 ft 2 kts 188°
2026-04-22 02:51 32.73350 -117.19705 21 ft 2 kts 173°
2026-04-22 02:51 32.73337 -117.19700 14 ft 1 kts 160°
2026-04-22 02:51 32.73331 -117.19697 28 ft 1 kts 151°
2026-04-22 02:52 32.73326 -117.19692 25 ft 1 kts 145°
2026-04-22 02:52 32.73321 -117.19687 24 ft 1 kts 143°
2026-04-22 02:52 32.73315 -117.19683 23 ft 1 kts 143°
2026-04-22 02:52 32.73313 -117.19680 23 ft 0 kts 142°